User: anonymous   Login
Location: Unspecified
(0.0000°N, 0.0000°E)
Time: 13:39:04
(UTC-04:00)
Language:

Hubble Space Telescope - Orbit

View from above orbital plane
View from above orbital plane
View from above satellite
View from above satellite

Ground track
Ground track

The orbit data is extracted from the following two-line orbital elements,

1 20580U 90037B   21297.70170484  .00000851  00000-0  40358-4 0  9994
2 20580  28.4704 289.7995 0002709  20.5499 142.5041 15.09794529530543
Epoch (UTC): 24 October 2021 16:50:27
Eccentricity: 0.0002709
inclination: 28.4704°
perigee height: 535 km
apogee height: 539 km
right ascension of ascending node: 289.7995°
argument of perigee: 20.5499°
revolutions per day: 15.09794529
mean anomaly at epoch: 142.5041°
orbit number at epoch: 53054

The dashed part of the orbit path shows where the satellite is in the earth's shadow,  

DLR